SPACEBEE-38 (46937 NORAD) Tracking and Keplerian Element Data

This shows tracking and keplerian element data for the satellite.

Feedback or suggestion? Click here.




ElementValue
Catalog46937
NameSPACEBEE-38
Epoch Orbit938
Epoch Day20.82186642
Epoch Year2021
RAAN160.1853
Inclination97.373
Eccentricity0.0017205
Argument of Perigee84.9104
Mean Anonmoly275.4097
Mean Motion15.2165897
Decay Rate3.373E-05
L11 46937U 20085J 21020.82186642 .00003373 00000-0 15173-3 0 9992
L22 46937 97.3730 160.1853 0017205 84.9104 275.4097 15.21658970 9383

Live tracking and technical data element details for SPACEBEE-38 (NORAD 46937). SPACEBEE-38 can be tracked NOW for your location showing map with azimuth and elevation plus other details from your city location.

Track the satellite on the map from your city or location and see movement details for azimuth, elevation, latitude, longitude, range, height, and movement on the map or in text.







IsCatalogInMostPopularTable: catalog: 46937, numindb: 24
Update: records affected: 1



GetName: 46937 SPACEBEE-38

Hit Count: updated at: Fri, 22 Jan 2021 16:33:37 GMT